View from above orbital plane
|
View from above satellite
|
Ground track
|
The orbit data is extracted from the following two-line orbital elements,
1 15755U 85042A 22145.48749807 -.00000050 00000-0 -11112-5 0 9991
2 15755 71.1099 163.7618 0033630 132.6055 227.7917 14.20497158916496
Epoch (UTC): | 25 May 2022 11:41:59 |
Eccentricity: | 0.0033630 |
inclination: | 71.1099° |
perigee height: | 799 km |
apogee height: | 848 km |
right ascension of ascending node: | 163.7618° |
argument of perigee: | 132.6055° |
revolutions per day: | 14.20497158 |
mean anomaly at epoch: | 227.7917° |
orbit number at epoch: | 91649 |
The dashed part of the orbit path shows where the satellite is in the earth's shadow,
|
|